Regional Weather Roundup
Issued by NWS

Home | Current Version | Previous Version | Graphics & Text | Print | Product List | Glossary On
Versions: 1 2 3 4 5 6 7 8 9 10 11 12 13 14 15 16 17 18 19 20 21 22 23 24 25 26 27 28 29 30 31 32 33 34 35 36 37 38 39 40 41 42 43 44 45 46 47 48 49 50
000
ASUS43 KLSX 021759
RWRMO

WEATHER SUMMARY FOR MISSOURI
NATIONAL WEATHER SERVICE SPRINGFIELD MO
1200 PM CST MON MAR 02 2015

NOTE: "FAIR" INDICATES FEW OR NO CLOUDS BELOW 12,000 FEET WITH NO
       SIGNIFICANT WEATHER AND/OR OBSTRUCTIONS TO VISIBILITY.
       CURRENT SKY AND/OR WEATHER CONDITIONS ARE NOT AVAILABLE FOR
       CHILLICOTHE AND FARMINGTON.

MOZ001>031-035>038-043-044-053-054-021900-
...NORTHERN AND WESTERN MISSOURI...

CITY           SKY/WX    TMP DP  RH WIND       PRES   REMARKS
KANSAS CTY INT CLOUDY    38  22  52 SE13      30.42F WCI  30
6HR MIN TEMP:  22; 6HR MAX TEMP:  38;

KANSAS C DTWN  MOSUNNY   39  20  46 E12       30.43F
6HR MIN TEMP:  22; 6HR MAX TEMP:  39;

LEE`S SUMMIT   PTSUNNY   34  19  54 SE10      30.44F WCI  26
6HR MIN TEMP:  22; 6HR MAX TEMP:  35;

ST JOSEPH      PTSUNNY   39  22  50 SE14      30.43F
6HR MIN TEMP:  20; 6HR MAX TEMP:  39;

CHILLICOTHE      N/A     35  24  64 SE9       30.49F WCI  28
6HR MIN TEMP:  18; 6HR MAX TEMP:  35;

KIRKSVILLE     PTSUNNY   29  19  66 SE7       30.49F WCI  22
6HR MIN TEMP:  18; 6HR MAX TEMP:  29;


$$
MOZ066>068-077>081-088>096-101>105-021900-
...SOUTHWEST MISSOURI...

CITY           SKY/WX    TMP DP  RH WIND       PRES   REMARKS
SPRINGFIELD    PTSUNNY   36  16  44 E16       30.39F WCI  26
6HR MIN TEMP:  20; 6HR MAX TEMP:  36;

JOPLIN         PTSUNNY   36  18  48 E16G22    30.39F WCI  26
6HR MIN TEMP:  21; 6HR MAX TEMP:  36;


$$
MOZ032>034-039>042-045>050-055>058-069>072-021900-
...CENTRAL MISSOURI...

CITY           SKY/WX    TMP DP  RH WIND       PRES   REMARKS
COLUMBIA       SUNNY     34  17  50 SE13      30.48F WCI  25
6HR MIN TEMP:  18; 6HR MAX TEMP:  34;

JEFFERSON CITY MOSUNNY   33  19  56 SE8       30.50F WCI  26
6HR MIN TEMP:  11; 6HR MAX TEMP:  33;

ROLLA          MOSUNNY   32  15  49 E12       30.44F WCI  23
6HR MIN TEMP:   9; 6HR MAX TEMP:  33;

SEDALIA        MOSUNNY   34  19  54 SE9       30.47F WCI  27
6HR MIN TEMP:  14; 6HR MAX TEMP:  34; 6HR PCP: TRACE;

OSAGE BEACH    MOSUNNY   36  18  48 SE10      30.46F WCI  28

$$
MOZ051-052-059>065-021900-
...EAST CENTRAL MISSOURI...

CITY           SKY/WX    TMP DP  RH WIND       PRES   REMARKS
ST LOUIS INTL  PTSUNNY   34  17  50 E10       30.52F WCI  26
6HR MIN TEMP:  16; 6HR MAX TEMP:  34;

SPIRIT OF STL  SUNNY     34  15  46 E5        30.51F WCI  30
6HR MIN TEMP:   7; 6HR MAX TEMP:  34;

ST CHARLES     SUNNY     31  19  61 SE6       30.53F WCI  25
6HR MIN TEMP:   9; 6HR MAX TEMP:  31;


$$
MOZ072>076-082>087-097>100-106>115-021900-
...SOUTH CENTRAL AND SOUTHEAST MISSOURI...

CITY           SKY/WX    TMP DP  RH WIND       PRES   REMARKS
CAPE GIRARDEAU SUNNY     37  19  48 NE8       30.50F
6HR MIN TEMP:  26; 6HR MAX TEMP:  37;

FARMINGTON     MOSUNNY   32  18  55 E10       30.51F WCI  24
6HR MIN TEMP:  18; 6HR MAX TEMP:  32;

POPLAR BLUFF   SUNNY     34  18  52 NE10      30.49F WCI  26
6HR MIN TEMP:  28; 6HR MAX TEMP:  34;

WEST PLAINS    MOSUNNY   36  17  46 VRB5      30.43F
6HR MIN TEMP:  23; 6HR MAX TEMP:  36;


$$


USA.gov is the U.S. government's official web portal to all federal, state and local government web resources and services.